Location: Cz?stochówka
(50.8142°N, 19.0915°E)
Time: 06:54:50
(UTC+00:00)

Cosmos 1302 Rocket - Pass Details

Date: 13 January 2026
Orbit: 752 x 772 km, 74.0° (Epoch: 10 February)

Event Time Altitude Azimuth Distance (km) Brightness Sun altitude
Exits shadow 03:46:39 61° 184° (S) 874 4.1 -26.7°
Drops below altitude 10° 03:51:01 10° 164° (SSE) 2,304 6.7 -26.0°
Sets 03:53:22 0° 163° (SSE) 3,224 7.5 -25.7°
